STARLINK-5749, 55569

Orbit data source: Space-Track

STARLINK-5749, 55569 is a payload satellite owned by SpaceX/Seattle (US) in LEO that was launched on Sun, 12 Feb 2023 UTC via an FALCON 9 launch vehicle from the Air Force Eastern Test Range (AFETR). Payload-class satellites include a variety of spacecraft equipped with specific instruments for various scientific and technological missions. These include communications satellites like Starlink; space stations such as the ISS; scientific satellites like the Hubble; Earth observation satellites from companies like Planet Labs, Umbra, and HawkEye 360; GPS; miniature CubeSats for education and research; and military/defense satellites.

Loading next visibility...
Identifier
55569, 2023-020A
Orbit
LEO
Country
Flag of USUS
Related business
Manufacturer
SpaceX/Seattle
Mission
Operational Commercial Communications
Bus & Motor
STARLINK, Unknown motor
Mass
305 kg wet, ~290 kg dry
Launch date (UTC)
2023-02-12 (3 years ago)
Launch vehicle
FALCON 9
Launch site
Air Force Eastern Test Range (AFETR)
Object type
Payload
Rocket body
Debris
Shape & HBR
Box + 1 Pan, 10.1 m
Radar Cross Section
13.562 m², Large (>1 m²)

Expand to show TLE details & history
Last TLE update: 2 days ago

TLE from 2 days ago
0 STARLINK-5749
1 55569U 23020A   26171.24082957  .00000420  00000-0  24768-4 0  9998
2 55569  42.9995 149.7161 0001120 265.9947  94.0777 15.27576448185620
Epoch: 2026-06-20T05:46Z
TLE epoch observation values (Epoch: 2026-06-20T05:46:47.674Z)
Latitude
-0.00001°
Longitude
154.55916°
Altitude
482.89 km
Speed
7.626 km/s
True Right ascension
09h 58m 51s
True Declination
0° 00' 00"
Sunlit
Object was in daylight at epoch
Visualization orbit readout
Latitude
Unknown
Longitude
Unknown
Altitude
Unknown
Speed
Unknown
Apparent Right ascension
Unknown
Apparent Declination
Unknown
Sunlit
N/A
Visualization observer readout
Local Sidereal Time
21:40:35
Azimuth
Unknown
Elevation
Unknown
Doppler factor
Unknown
Orbital elements
Apogee altitude
485.774 km
Perigee altitude
484.236 km
Semi-major axis
6,863.142 km
Eccentricity
0.00011
Inclination
42.9995°
RAAN
149.7161°
Arg. of periapsis
265.9947°
True anomaly
94.0905°
Mean anomaly
94.0777°
Eccentric anomaly
94.0841°
Mean motion
3.81732 °/min
Orbital period
94.31 mins
BSTAR
0.000024768
Loading maneuver chart data...
Computing Atmospheric mass density...
Loading historical data...
Loading historical data...
Loading historical data...
Loading historical data...
Loading historical data...
Loading historical data...
Loading historical data...

Documentation

Showing up to 5 results
|